ARCSTONE

operational
NORAD ID: 64540 Int'l Des: 2025-135 Owner: LARCN Country: US
LEOCIRCULARRETROGRADESSO

关于 ARCSTONE

正在加载描述...

实时位置

正在加载3D地球...

即将过境

高度历史

Altitude vs Time

uPlot chart will show altitude changes over time

两行轨道根数

1 64540U 25135N 26061.09895576 .00027185 00000-0 99065-3 0 9994
2 64540 97.4497 178.1265 0003828 188.4190 171.6986 15.28150746 38652
Epoch: Mar 2, 2026 • Age: 31 hours

当前状态

高度 487.2 km
速度 7.62 km/s
星下点 -2.09°S, 81.27°W
发射日期 Jun 23, 2025
运行时间 0.6 years
类型 other

技术详情

分类 Payload
质量 5.00 kg
干质量 5.00 kg
总质量 5.00 kg
长度 0.30 m
直径 0.10 m
跨度 1.30 m
形状 Box + 2 pan
制造商 BLCAN
平台类型 Cubesat 6U
阶段状态 In Orbit
所有者/国家 LARCN/US

大型星座

Loading constellations...